ARIANE 2 DEB, 27046

Orbit data source: Space-Track

ARIANE 2 DEB, 27046 is space debris in HEO originally from a launch on Fri, 27 Jan 1989 UTC launched from the French Guiana (FRGUI). Debris objects in space refer to the collection of defunct objects orbiting the Earth. Examples of debris include non-operational satellites, rocket bodies, and fragments generated from explosions, collisions, or faulty payload assembly.

Loading next visibility...
Identifier
27046, 1989-006AB
Orbit
HEO
Country
Flag of FRFR
Related business
Manufacturer
EADS/LV
Mission
Spacecraft
Bus & Motor
Unknown
Mass
Unknown
Launch date (UTC)
1989-01-27 (37 years ago)
Launch vehicle
Unknown
Launch site
French Guiana (FRGUI)
Object type
Payload
Rocket body
Debris
Shape & HBR
Unknown shape, 0.6 m
Radar Cross Section
Medium (>0.1 m² and <1 m²)

Expand to show TLE details & history
Last TLE update: 15 hours ago

TLE from 15 hours ago
0 ARIANE 2 DEB
1 27046U 89006AB  26061.66126637 -.00000254  00000-0 -34580-2 0  9999
2 27046   8.1485  29.7151 7083251 183.3017 236.0048  2.24261237109362
Epoch: 2026-03-02T15:52Z
TLE epoch observation values (Epoch: 2026-03-02T15:52:13.414Z)
Latitude
2.43178°
Longitude
8.52102°
Altitude
32,790.928 km
Speed
2.046 km/s
True Right ascension
03h 08m 06s
True Declination
2° 25' 45"
Sunlit
Object was in daylight at epoch
Visualization orbit readout
Latitude
Unknown
Longitude
Unknown
Altitude
Unknown
Speed
Unknown
Apparent Right ascension
Unknown
Apparent Declination
Unknown
Sunlit
N/A
Visualization observer readout
Local Sidereal Time
10:46:56
Azimuth
Unknown
Elevation
Unknown
Doppler factor
Unknown
Orbital elements
Apogee altitude
35,748.481 km
Perigee altitude
814.45 km
Semi-major axis
24,659.602 km
Eccentricity
0.70833
Inclination
8.1485°
RAAN
29.7151°
Arg. of periapsis
183.3017°
True anomaly
194.20713°
Mean anomaly
236.0048°
Eccentric anomaly
213.566°
Mean motion
0.56049 °/min
Orbital period
642.3 mins
BSTAR
-0.003458
Loading maneuver chart data...
Computing Atmospheric mass density...
Loading historical data...
Loading historical data...
Loading historical data...
Loading historical data...
Loading historical data...
Loading historical data...
Loading historical data...

Documentation

Showing up to 5 results
|